Voltar ao catálogo

STARLINK-35052

AtivoComunicaçõesSSO
NORAD 65540·PAYLOAD·🇺🇸 United States

Lançado Sep 6, 2025 de Cape Canaveral Space Force Station

Loading…

Próximas Passagens (próximas 24 horas)

TLE

AtualizadoSource: CelesTrak SupGP

Época: Sep 14, 2026, 20:40 UTC

1 65540C 25200W   26257.86159722 -.00034999  00000+0 -10869-2 0  2579
2 65540  97.2851 324.2918 0001069  93.2462 301.7548 15.33445268    15

Acompanhe STARLINK-35052 em tempo real com AllMySat

Download on the App Store